Home   Weather   Pokhara   Past weeks

Flag for Nepal Past Weather in Pokhara, Nepal — Yesterday and Last 2 Weeks

Now
52 °F

Fog.


Feels Like: 51 °F
Forecast: 42 / 71 °F
Wind: 3 mph from East

Location: Kathmandu Airport

Current Time: Dec 5, 2016 at 10:23:08 pm

Latest Report: Dec 5, 2016 at 10:05 pm


Visibility: 3 mi

Pressure: 30.21 "Hg (27.28 "Hg at 847m altitude)

Humidity: 88%

Dew Point: 48 °F

Location of PokharaLocation

Past Weather in Pokhara — Graph

°F

Pokhara Temperature Yesterday

Maximum temperature yesterday: 64 °F (at 5:05 pm)
Minimum temperature yesterday: 45 °F (at 5:35 am)
Average temperature yesterday: 53 °F

High & Low Weather Summary for the Past Weeks

 TemperatureHumidityPressure
High72 °F (Nov 21, 1:35 pm)100% (Nov 23, 5:35 am)30.30 "Hg (Nov 23, 5:35 am)
Low43 °F (Dec 5, 6:35 am)31% (Dec 5, 2:05 pm)29.92 "Hg (Nov 25, 3:05 pm)
Average58 °F76%30.11 "Hg
* Reported Nov 20 9:05 pm — Dec 5 9:05 pm, Pokhara, Weather by CustomWeather, © 2016

Note: Actual official high and low records may vary slightly from our data, if they occured in-between our weather recording intervals... More about our weather records

Advertising

Pokhara Weather History for the Previous 24 Hours

Scroll right to see more
 ConditionsComfort  
Time TempWeatherWind HumidityBarometerVisibility
9:05 pm
Mon, Dec 5
54 °FPassing clouds.2 mph88%30.21 "Hg3 mi
8:35 pm55 °FPassing clouds.3 mph82%30.21 "Hg4 mi
8:05 pm55 °FPassing clouds.3 mph82%30.18 "Hg4 mi
7:35 pm57 °FPassing clouds.3 mph77%30.18 "Hg4 mi
7:05 pm57 °FPassing clouds.3 mph77%30.18 "Hg4 mi
6:35 pm59 °FPassing clouds.7 mph72%30.15 "Hg4 mi
6:05 pm59 °FPassing clouds.6 mph72%30.15 "Hg4 mi
5:35 pm61 °FPassing clouds.3 mph63%30.12 "Hg4 mi
5:05 pm63 °FPassing clouds.6 mph59%30.12 "Hg4 mi
4:35 pm64 °FPassing clouds.7 mph52%30.09 "Hg4 mi
4:05 pm66 °FPassing clouds.8 mph49%30.09 "Hg4 mi
3:35 pm70 °FPassing clouds.6 mph43%30.09 "Hg4 mi
3:05 pm70 °FPassing clouds.7 mph43%30.09 "Hg4 mi
2:35 pm72 °FPassing clouds.3 mph33%30.09 "Hg4 mi
2:05 pm72 °FPassing clouds.5 mph31%30.09 "Hg4 mi
1:35 pm72 °FPassing clouds.3 mph36%30.12 "Hg4 mi
1:05 pm70 °FPassing clouds.2 mph43%30.12 "Hg4 mi
12:35 pm70 °FPassing clouds.3 mph43%30.15 "Hg4 mi
11:35 am68 °FHaze.No wind49%30.18 "Hg3 mi
11:05 am64 °FHaze.No wind56%30.21 "Hg3 mi
10:35 am61 °FHaze.No wind59%30.24 "Hg2 mi
10:05 am59 °FHaze.No wind59%30.24 "Hg2 mi
9:35 am57 °FHaze.No wind67%30.24 "Hg2 mi
9:05 am54 °FFog.No wind77%30.24 "Hg1 mi
8:35 am50 °FFog.3 mph82%30.24 "Hg2 mi
8:05 am48 °FFog.2 mph87%30.24 "Hg2 mi
7:35 am46 °FFog.2 mph93%30.21 "Hg2 mi
7:05 am45 °FFog.No wind93%30.21 "Hg2 mi
6:35 am43 °FFog.3 mph100%30.18 "Hg3 mi
6:05 am45 °FFog.3 mph93%30.18 "Hg3 mi
5:35 am45 °FPassing clouds.No wind93%30.18 "Hg3 mi
4:35 am45 °FPassing clouds.No wind61%N/A4 mi
3:35 am46 °FPassing clouds.No wind93%30.18 "Hg4 mi
2:35 am46 °FPassing clouds.No wind93%30.18 "Hg4 mi
1:35 am48 °FPassing clouds.6 mph87%30.21 "Hg4 mi
12:35 am48 °FPassing clouds.2 mph87%30.21 "Hg4 mi
12:05 am48 °FPassing clouds.3 mph87%30.21 "Hg4 mi
11:35 pm
Sun, Dec 4
50 °FPassing clouds.5 mph88%30.21 "Hg4 mi
11:05 pm50 °FPassing clouds.3 mph82%30.21 "Hg4 mi
10:35 pm50 °FPassing clouds.3 mph88%30.21 "Hg4 mi
10:05 pm52 °FPassing clouds.2 mph82%30.24 "Hg4 mi
Weather by CustomWeather, © 2016

See weather overviewHow to use our weather pages